RH
90 85 83 81 78 75 75 75 78 70 70 76 75 90 88 95 99 100 88 84 98 98 99 96 93 76 80 77 88 98 96 97 96 88 84 86 79 62 55 55 70 76 87 95 89 93 85 45 32 42 50 37 35 37
85 82 76 77 80 79 75 76 78 78 66 77 77 87 87 99 94 100 96 77 98 99 100 100 99 100 96 79 81 89 80 95 92 91 83 69 71 63 59 80 50 79 71 85 77 78 51 37 41 49 43 40 31 32
83 80 78 78 78 79 74 69 75 79 70 75 89 83 89 97 95 99 90 91 100 99 100 99 99 100 98 89 88 90 96 81 86 70 79 76 61 67 69 72 63 53 50 66 58 50 48 42 41 39 36 36 33 31
83 78 79 82 81 80 78 72 77 75 70 75 92 83 94 96 94 98 96 95 99 96 100 99 95 96 98 99 98 96 89 92 89 92 96 90 71 55 66 59 68 62 50 61 62 42 50 40 37 37 36 34 30 28
83 80 81 83 79 78 76 76 77 77 73 73 92 85 95 97 91 100 87 92 98 99 100 100 87 94 98 98 91 96 95 95 99 99 98 94 79 58 65 63 60 49 59 68 76 54 58 48 38 34 33 31 31 33
87 84 82 80 78 78 76 79 76 78 76 73 88 85 97 96 89 99 98 81 85 91 96 100 94 93 96 99 91 98 98 96 97 97 95 91 82 73 85 78 48 39 39 49 54 47 46 41 32 29 33 34 31 31
88 85 86 79 78 78 80 82 81 85 74 76 88 92 95 90 88 98 94 95 95 91 97 100 100 96 99 96 98 99 98 100 96 99 98 94 89 83 94 81 46 38 34 34 47 47 45 39 39 32 32 30 28 27
80 82 80 78 79 82 76 78 85 85 75 79 89 91 91 91 88 94 92 91 95 97 97 99 100 99 96 100 100 97 100 98 98 99 96 93 81 81 88 61 48 38 35 36 38 37 40 37 33 31 31 28 32 34
76 73 76 73 76 80 77 79 85 78 78 84 72 86 94 94 96 93 92 95 98 92 100 99 96 99 96 100 99 98 96 100 98 98 90 82 87 88 70 54 47 46 41 37 34 37 37 37 34 31 32 35 37 36
77 72 68 76 71 78 80 81 83 77 81 78 87 98 100 97 94 99 94 96 98 99 100 95 90 99 88 98 100 98 96 99 100 92 78 85 88 63 51 46 45 41 40 38 38 38 39 41 42 37 38 38 39 42
98 93 76 85 83 80 79 81 81 81 86 89 100 100 94 97 100 99 100 100 100 100 100 84 85 95 79 96 99 95 98 95 100 93 84 87 91 71 50 46 37 36 33 33 34 33 36 41 46 44 40 42 36 33
88 84 90 91 91 90 86 81 78 91 84 84 98 94 98 99 100 99 99 99 99 99 98 88 80 85 81 77 92 90 96 92 93 79 88 92 81 48 47 47 44 40 37 32 30 36 41 39 38 45 44 39 33 33
82 87 87 86 92 94 96 82 80 90 95 96 99 100 100 99 98 98 97 99 99 99 83 74 81 81 77 80 88 82 91 94 76 92 89 87 59 43 47 45 46 44 39 35 37 39 35 38 35 36 40 34 34 43
94 96 99 100 98 99 94 87 84 98 84 100 99 99 98 98 97 96 89 85 85 85 70 66 78 85 80 82 82 76 83 83 94 99 88 88 58 48 50 48 43 43 45 44 45 46 48 48 44 36 38 44 42 42
96 99 99 100 100 99 94 88 88 99 93 99 100 95 97 85 93 89 82 85 69 61 61 68 78 82 85 80 72 76 86 89 84 81 76 71 55 48 49 44 45 48 54 49 49 52 58 53 52 46 41 39 50 57
99 96 99 99 98 93 96 94 97 100 99 100 100 97 95 96 94 94 89 86 62 59 60 72 82 77 80 81 74 78 80 80 71 68 72 64 54 45 51 50 52 52 52 50 50 51 52 50 49 47 48 53 62 71
99 99 93 89 92 95 95 99 100 99 99 99 92 90 96 99 98 94 87 72 55 54 84 87 70 63 74 81 73 77 80 77 69 67 69 56 52 52 52 53 56 58 52 47 47 46 45 42 48 59 72 58 61 64
99 93 88 100 100 99 99 100 99 97 100 92 100 97 95 97 98 96 95 60 54 59 64 64 65 62 78 70 67 72 75 73 71 70 67 53 51 51 49 59 56 47 48 44 42 50 54 59 65 67 59 57 62 67
90 92 98 99 90 98 100 100 96 96 97 96 95 92 90 90 87 87 92 60 64 64 67 74 65 74 68 67 72 78 76 76 74 66 58 52 54 57 56 48 44 42 43 48 49 55 51 47 53 57 55 56 63 63
91 84 96 90 86 94 99 99 91 89 97 98 87 94 95 98 97 97 96 73 68 77 78 72 68 73 74 73 69 78 78 77 69 71 72 71 67 62 66 64 64 46 47 49 48 50 57 54 47 45 49 52 60 65
100 100 94 90 82 68 92 92 95 96 96 97 96 98 100 99 100 100 98 75 84 86 85 86 85 81 75 77 75 74 72 64 75 77 83 83 80 68 65 50 44 46 61 70 76 66 53 61 48 48 51 50 53 64
97 98 95 72 82 91 94 75 88 88 95 97 98 98 100 100 100 100 91 89 80 79 83 81 75 74 72 67 68 64 64 61 62 70 66 65 76 75 76 68 69 79 70 65 62 64 56 50 51 51 54 54 62 69
98 90 91 98 100 100 99 90 85 82 98 100 99 99 99 100 100 80 100 85 77 73 69 67 61 57 60 50 43 43 48 57 72 74 76 74 64 59 60 58 50 68 86 61 50 50 53 50 52 55 63 70 82 84
83 98 99 99 94 100 98 97 82 91 99 98 95 99 100 100 93 90 98 74 78 70 66 59 62 66 59 54 60 58 48 44 63 59 48 58 69 64 47 44 44 44 44 41 48 49 48 50 54 65 72 97 98 99
88 98 99 99 90 94 96 96 96 90 98 98 95 98 98 89 98 83 77 91 80 78 75 68 65 68 73 71 66 60 35 38 64 66 56 47 58 62 61 58 54 48 46 50 53 53 53 69 98 98 100 99 98 99
97 99 96 91 93 86 88 96 96 97 95 97 97 99 89 90 91 81 65 78 91 87 94 82 77 77 72 69 70 68 57 40 42 72 59 56 56 69 87 89 89 63 55 63 63 74 97 97 98 99 100 94 94 95
92 97 83 66 68 71 88 90 83 89 96 96 95 95 94 94 88 86 92 91 93 88 70 60 63 76 75 85 89 85 74 62 61 74 78 73 74 78 79 93 99 92 86 82 80 80 88 98 98 98 99 98 92 96
99 90 85 81 82 77 94 95 96 97 91 87 92 96 90 86 96 100 98 90 89 88 91 90 86 86 92 93 91 81 79 74 72 72 73 79 79 77 78 82 88 87 88 89 90 94 98 96 98 100 100 100 96 92
99 88 77 86 89 95 98 96 89 84 81 88 92 92 98 99 100 99 92 85 82 87 97 98 100 98 96 95 97 99 100 94 92 96 91 93 97 97 90 83 78 79 93 98 99 99 98 96 98 99 99 99 99 100
96 83 96 96 94 98 100 99 99 99 97 95 86 89 92 99 99 92 95 100 98 98 98 98 98 94 97 93 97 98 96 97 95 93 94 91 98 99 86 77 81 94 99 99 97 98 97 99 100 100 100 100 100 100
91 97 91 91 98 98 99 98 99 96 90 94 98 92 92 98 95 94 94 96 100 100 99 98 98 94 91 89 89 91 95 99 99 99 98 97 98 98 98 88 84 88 99 100 99 99 99 100 100 100 100 100 100 99
94 86 88 85 99 95 99 99 96 89 82 89 91 87 90 89 93 99 99 92 92 92 96 92 95 100 88 87 88 90 96 100 100 99 98 98 99 99 100 100 100 100 100 100 100 100 100 100 100 100 100 100 99 99
89 84 82 84 93 85 92 94 84 91 82 82 85 81 94 96 98 99 99 99 100 99 98 94 90 88 85 82 85 88 92 97 99 99 100 99 100 100 100 100 99 98 97 100 99 99 100 100 100 100 100 99 99 98
Wind_Speed
17 17 18 18 19 20 20 19 18 19 19 19 19 19 20 17 16 23 20 18 16 3 3 2 7 14 11 12 9 7 4 2 2 4 4 5 4 6 5 9 8 6 6 4 3 3 7 6 2 9 7 4 7 7
17 18 19 20 22 22 22 20 18 17 20 18 19 16 20 14 14 20 11 21 23 5 2 0 7 5 2 3 6 9 6 5 5 4 3 3 3 4 7 5 11 6 7 6 7 6 4 4 5 5 7 6 4 7
19 19 19 21 23 23 23 22 19 18 17 18 16 16 19 14 15 15 12 22 13 3 3 2 3 5 6 1 3 5 1 5 3 1 4 3 3 4 7 5 6 5 7 5 6 6 6 7 5 7 6 7 7 6
18 19 19 20 20 21 21 21 19 19 17 15 15 16 19 13 14 16 19 20 11 2 2 1 2 4 6 6 4 5 9 5 3 3 3 1 2 3 4 5 5 6 13 7 3 2 6 7 7 7 7 7 5 4
19 19 18 19 19 20 20 20 18 17 17 15 15 15 17 12 13 17 19 24 20 5 3 2 4 2 6 9 5 1 5 6 3 3 3 3 3 2 2 3 3 4 7 7 5 6 6 5 7 8 7 3 3 6
19 19 18 18 18 18 18 19 19 16 15 15 14 15 16 10 10 6 3 7 21 14 3 1 3 3 5 7 14 4 2 3 3 3 1 1 3 2 3 2 3 4 5 8 5 8 7 8 6 6 6 7 6 6
20 19 18 18 18 17 16 17 17 16 14 13 10 12 9 9 10 4 4 6 19 5 3 1 2 3 1 4 2 3 2 3 3 3 2 0 1 2 2 3 4 3 1 4 8 9 6 7 5 7 7 7 10 8
21 20 20 19 16 16 16 15 14 14 12 9 8 8 8 10 11 8 13 21 23 5 3 3 2 1 1 3 2 1 3 3 4 3 2 3 1 1 2 5 2 3 4 6 7 8 7 8 8 7 8 7 7 6
23 21 20 19 17 17 16 14 13 12 11 8 4 5 4 3 3 4 2 5 9 3 4 3 5 4 3 3 2 3 3 3 2 1 2 3 2 4 5 7 6 6 3 5 6 7 8 8 7 6 9 8 8 4
22 21 23 20 18 17 16 13 12 11 11 7 5 1 2 3 5 3 3 2 3 1 2 2 3 4 5 3 2 3 3 3 2 3 2 2 3 4 7 6 6 6 7 7 5 3 5 4 8 8 9 7 7 4
20 22 23 22 19 18 16 14 13 13 13 6 2 2 4 4 0 1 3 2 2 2 2 3 6 10 3 4 3 3 3 3 3 3 4 3 4 7 11 6 5 5 7 7 8 6 7 9 9 9 8 7 6 2
23 23 23 22 21 20 18 17 15 18 8 9 4 2 1 2 2 3 3 2 2 3 2 8 10 5 4 4 3 3 3 1 3 3 3 3 4 7 13 12 9 7 7 8 6 7 9 8 11 9 8 7 5 2
24 25 24 23 23 21 21 20 19 16 14 6 3 2 2 3 4 5 5 3 3 4 6 14 9 4 3 3 3 3 4 2 4 3 4 5 3 7 10 11 10 8 9 8 7 14 15 12 16 14 9 7 4 1
24 23 24 26 26 25 24 23 23 21 6 3 5 6 4 4 4 5 2 2 4 6 14 12 6 4 3 3 3 5 4 4 3 5 8 3 7 8 7 9 12 13 11 10 9 9 10 12 11 11 9 6 4 8
30 32 34 35 33 30 28 25 26 15 5 3 2 4 6 5 3 4 4 4 3 12 12 7 4 4 3 4 2 5 6 5 7 5 4 6 8 10 10 13 13 12 9 9 8 8 10 14 13 8 6 6 7 10
23 18 22 33 42 37 30 27 26 4 1 2 3 4 3 1 4 3 3 4 11 12 5 4 4 4 2 5 4 6 8 6 4 4 4 5 7 9 8 8 8 9 8 7 10 14 15 15 12 8 5 8 10 11
20 3 21 31 38 38 37 15 6 4 3 3 3 3 1 1 3 3 4 7 13 11 4 3 6 6 5 4 5 6 5 4 4 2 3 7 8 10 9 8 8 8 8 10 12 18 18 15 11 9 5 10 9 11
3 16 29 38 42 41 12 5 3 3 5 5 2 3 2 1 2 4 5 10 10 6 2 3 4 4 5 7 4 4 3 3 4 4 5 6 8 10 8 9 8 13 10 11 12 15 18 16 10 7 8 9 10 11
21 32 40 45 36 7 3 2 2 4 5 2 2 2 2 3 2 5 5 9 5 3 4 2 3 3 3 3 6 4 4 4 4 3 4 7 10 10 12 16 15 11 9 10 11 9 9 8 9 9 9 9 10 13
33 39 47 42 32 4 3 2 4 3 3 2 2 3 3 2 6 4 3 1 4 3 3 1 2 2 3 3 3 5 4 5 6 5 5 4 6 13 9 12 9 15 12 12 11 10 10 8 10 12 13 13 13 14
35 43 49 41 12 1 3 4 3 3 1 1 2 2 2 1 1 2 1 1 4 2 2 1 2 3 5 5 5 5 6 7 5 5 5 5 3 14 12 17 15 11 5 7 5 7 10 14 16 14 15 14 18 14
18 49 26 24 1 2 1 2 5 4 2 1 2 2 1 0 1 1 2 4 2 0 3 3 2 4 6 6 6 8 14 17 16 12 16 14 4 4 4 8 10 4 8 10 11 12 16 17 14 15 16 19 15 13
47 29 9 2 3 5 3 3 4 3 3 3 2 2 1 1 1 2 3 1 1 2 3 4 6 8 8 11 17 17 21 16 6 5 7 10 13 12 11 11 13 10 4 13 17 18 17 15 15 17 15 12 11 11
30 4 5 7 5 3 3 3 2 3 2 1 2 3 2 1 1 3 3 1 1 1 3 6 4 4 4 6 4 4 8 16 11 11 13 11 4 4 11 11 11 12 13 13 13 14 16 17 15 13 12 10 9 9
6 1 2 3 3 4 4 3 3 3 3 2 2 2 1 1 2 2 3 1 2 2 2 4 4 4 4 3 3 3 8 12 5 4 8 10 7 2 3 7 12 16 16 16 16 16 17 14 11 10 11 11 10 10
3 4 4 4 3 5 4 4 4 4 3 2 2 0 2 2 3 2 2 7 3 4 3 4 4 4 3 4 4 3 5 8 7 3 2 4 7 6 3 3 2 9 9 9 10 9 8 6 9 12 13 13 15 15
3 2 2 3 4 5 5 3 3 5 4 4 3 2 2 3 3 1 2 3 3 2 9 12 10 5 4 5 16 13 14 11 8 8 7 8 8 8 7 4 0 2 5 6 7 9 9 9 10 11 13 13 13 14
3 4 4 3 5 3 5 4 3 3 3 3 4 3 5 4 2 2 2 4 19 22 23 22 20 21 20 17 14 12 10 8 7 5 4 6 4 3 3 5 7 10 13 15 17 16 12 12 13 13 13 13 14 13
3 2 5 9 5 5 4 2 3 3 4 3 4 2 2 3 3 2 4 15 17 19 10 9 12 16 17 15 14 13 11 10 5 5 4 2 2 4 5 7 9 12 14 14 12 12 12 14 15 15 13 13 12 10
2 2 3 3 4 3 2 1 1 3 3 2 2 4 3 3 9 14 15 13 9 6 10 10 9 9 6 6 6 9 9 7 3 2 2 2 1 5 5 6 9 9 8 6 6 6 4 4 6 7 8 10 11 12
2 3 4 5 3 3 3 3 2 2 5 5 6 4 4 3 4 13 11 9 12 12 12 9 9 9 7 5 4 3 3 4 3 1 1 2 3 5 7 6 7 8 7 7 6 4 4 5 7 9 10 11 12 13
3 4 3 4 2 3 4 4 3 4 4 3 3 3 3 3 3 2 4 5 7 6 7 9 7 6 8 6 4 3 3 3 1 1 4 5 7 8 9 10 9 9 8 8 8 7 7 8 9 10 11 12 14 15
3 6 7 4 3 3 0 2 3 3 3 3 3 3 2 2 3 2 3 4 5 5 6 6 6 8 7 5 4 3 0 1 1 3 5 6 7 8 8 7 8 8 8 7 7 7 8 9 9 10 12 15 16 19
Wind_Direction
241 250 256 261 263 265 268 273 277 281 278 282 288 276 286 274 250 237 278 282 272 280 70 180 188 191 177 195 171 158 113 162 194 129 157 194 153 192 136 159 155 158 147 175 136 114 261 209 115 148 199 135 120 121
245 253 258 263 266 266 269 271 274 278 281 283 284 281 284 262 252 216 249 266 266 251 145 209 126 80 34 192 147 175 155 150 193 125 186 156 150 163 152 181 164 194 175 177 166 203 213 133 160 150 115 122 120 117
251 259 266 268 267 268 270 269 270 271 275 277 275 294 281 278 268 226 260 280 260 125 246 176 89 82 76 53 111 137 136 167 186 185 158 196 173 141 171 205 126 200 161 172 116 224 190 195 150 153 140 135 113 116
252 262 266 266 267 268 270 268 267 272 273 270 262 293 276 272 302 236 242 251 283 77 147 97 98 95 142 128 150 43 120 118 89 55 80 118 200 160 192 162 135 183 170 167 167 104 108 129 137 144 128 127 135 127
251 259 265 267 270 269 267 265 268 268 267 266 255 284 280 262 286 243 261 263 252 260 143 193 150 77 134 150 127 28 113 108 106 110 114 191 288 62 13 77 179 167 161 172 211 174 137 193 151 129 122 123 72 88
253 257 263 266 268 267 266 263 269 261 256 255 247 269 266 242 298 231 270 267 262 202 97 124 319 50 77 152 148 54 207 134 128 122 127 274 289 74 109 168 225 147 135 147 166 154 144 138 115 98 104 99 89 73
254 254 260 267 266 261 263 267 268 254 252 249 241 261 247 253 284 230 202 292 315 139 102 75 21 356 315 109 102 127 46 90 122 126 126 299 173 152 89 169 205 176 131 119 162 128 129 151 151 113 118 94 73 42
251 252 254 263 262 255 264 266 261 253 252 248 231 260 270 266 282 253 254 268 293 83 98 119 90 44 285 100 82 176 88 17 28 93 98 157 338 84 176 229 298 348 190 165 152 131 148 129 105 97 98 81 71 62
250 249 253 258 258 256 260 258 254 241 228 208 238 239 254 249 261 327 338 263 276 147 139 173 142 153 191 103 108 56 67 74 6 129 159 99 164 229 198 177 195 230 202 147 119 123 121 123 142 119 99 83 87 57
250 243 249 251 254 250 252 247 240 222 204 192 163 234 279 237 324 326 339 67 349 281 191 142 108 144 138 113 84 86 97 137 127 217 139 144 242 213 191 198 185 207 205 189 164 179 173 152 131 120 116 106 96 92
241 241 244 242 243 242 242 230 223 199 179 179 171 231 293 322 224 10 220 191 176 188 180 137 148 123 176 102 115 112 135 161 124 224 131 217 255 204 200 206 173 171 146 125 129 136 112 141 136 129 116 115 121 147
238 237 236 236 232 234 235 218 210 191 172 177 155 154 345 356 252 229 191 133 212 203 200 141 148 122 106 110 97 105 111 114 134 142 107 250 243 172 187 189 194 184 168 150 148 148 138 134 133 125 128 135 137 220
239 234 234 231 232 232 219 207 200 185 151 132 217 178 189 184 232 223 166 154 221 190 172 152 136 122 76 93 99 107 102 166 110 80 229 233 260 166 177 193 190 163 149 153 158 146 136 128 131 134 132 145 169 179
239 235 229 223 225 220 209 205 191 182 160 197 190 176 220 196 241 221 248 169 212 157 146 139 115 103 134 84 129 101 134 108 150 192 231 219 219 184 162 163 150 155 150 148 138 127 127 131 137 146 156 164 212 262
253 247 238 224 216 209 207 202 189 177 172 240 199 184 217 231 282 267 282 297 148 139 138 118 62 88 82 102 126 117 146 196 210 229 216 193 189 156 148 153 149 149 142 138 134 139 136 138 140 155 191 217 237 257
239 224 219 206 204 201 199 192 184 175 273 245 229 232 215 263 262 225 233 258 139 145 129 78 99 99 140 148 136 186 164 215 237 199 210 173 157 152 134 131 130 136 136 129 130 140 148 155 160 188 211 237 239 239
175 190 179 181 181 182 177 158 160 158 200 239 258 273 291 195 268 287 298 182 146 160 153 131 118 178 124 155 193 177 197 201 192 192 150 150 139 137 128 122 123 125 126 130 144 163 177 180 169 176 207 250 248 252
156 158 164 160 157 160 148 186 153 148 220 232 236 215 230 151 307 291 295 155 166 164 110 153 130 149 169 174 197 190 153 126 127 142 139 124 115 118 120 118 118 121 125 140 147 138 144 157 170 197 224 247 247 231
168 158 160 157 156 106 135 145 174 181 208 234 180 243 189 275 236 243 295 190 133 109 90 45 137 158 187 194 139 149 150 139 136 121 114 115 118 124 123 123 122 116 127 135 130 147 171 186 191 203 220 229 233 240
174 165 162 158 157 139 105 135 203 175 182 208 203 179 113 27 317 113 204 61 86 92 70 68 139 184 153 165 132 137 133 125 117 96 71 60 101 107 111 119 128 136 130 151 163 177 171 174 211 233 239 241 249 253
159 164 159 161 197 184 128 167 115 142 196 279 93 59 38 36 302 104 317 282 70 90 84 18 79 73 69 77 89 103 100 98 91 112 133 94 71 109 116 128 136 145 148 170 170 198 210 224 239 245 243 249 252 251
157 151 152 171 151 212 134 245 138 143 156 166 85 92 102 326 267 85 1 44 60 81 133 125 76 80 76 69 78 83 99 92 96 96 105 107 95 97 110 144 144 159 168 178 189 211 229 240 250 260 267 264 249 234
140 138 128 140 179 175 163 267 105 135 139 153 160 103 68 291 330 153 73 290 28 37 94 92 89 83 93 89 84 84 103 103 96 100 112 132 149 160 166 173 178 177 187 220 225 237 250 266 268 264 258 236 230 226
120 90 154 189 191 120 126 111 100 86 69 96 104 117 129 130 32 53 85 136 205 80 96 121 105 90 69 77 90 109 110 119 120 131 139 130 136 195 192 203 212 224 230 245 249 255 263 268 270 256 244 227 216 224
107 153 121 107 161 113 102 94 109 118 113 82 71 93 48 120 71 76 140 183 113 143 159 119 111 118 120 122 117 113 141 147 145 162 188 185 183 182 233 242 244 246 251 251 250 251 256 257 257 234 220 224 232 234
134 175 178 132 168 113 139 125 140 118 110 88 80 147 240 102 88 205 172 161 172 162 168 157 141 121 123 148 150 149 202 193 178 124 154 194 216 202 196 200 239 270 274 271 259 246 248 245 247 238 237 243 257 256
92 93 183 200 108 104 92 62 82 95 97 136 180 153 93 131 178 144 65 35 113 123 139 151 148 143 152 108 105 99 86 107 124 132 125 110 97 81 76 84 163 309 326 303 292 283 276 259 255 255 256 265 262 251
41 353 83 92 80 78 107 97 93 110 152 162 126 178 184 168 102 41 119 114 111 104 94 92 99 109 104 106 112 114 99 101 111 113 98 77 52 6 333 320 305 296 294 290 284 278 272 262 261 263 262 264 266 257
59 34 82 92 82 59 50 81 189 180 141 148 157 133 91 53 358 46 56 103 113 107 85 82 71 101 96 90 77 68 64 65 67 69 60 328 325 336 346 320 311 301 297 290 281 277 277 259 253 255 258 255 251 229
115 126 101 56 62 85 71 303 42 335 21 44 91 93 74 47 8 57 71 72 85 99 106 103 102 98 92 92 87 71 58 61 88 161 207 233 350 309 333 340 341 339 324 304 283 283 281 238 210 199 193 185 178 176
28 56 66 45 58 15 6 347 6 64 45 38 33 70 99 117 59 49 67 90 107 106 99 94 86 90 100 106 126 143 135 110 108 126 252 304 318 321 329 334 323 317 299 269 257 253 213 190 182 172 175 169 168 164
41 56 106 96 69 338 345 35 33 56 46 59 61 85 101 102 86 72 41 75 105 122 133 144 140 148 131 120 101 75 91 117 73 331 315 307 308 309 306 297 296 294 283 263 257 242 220 206 192 184 178 170 162 155
82 78 92 101 113 113 11 87 73 81 62 74 63 64 50 92 117 118 110 88 86 143 140 127 125 123 108 86 69 54 29 215 274 300 308 307 303 300 300 299 291 285 274 260 249 236 225 215 201 183 166 153 145 140